SCP
0 0 0 0 0 0 0 0 0 0 0 0 0 0 0 0 0 0 1 1 1 1 1 1 1 1 1 0 0 0 0 0 0 0 0 0 1 1 1 1 1 1 1 1
0 0 0 0 0 0 0 0 0 0 0 0 0 0 0 0 0 0 0 1 1 1 1 1 1 1 1 1 0 0 0 0 0 0 0 0 1 1 1 1 1 1 1 1
0 0 0 0 0 0 0 0 0 0 0 0 0 0 0 0 0 0 0 0 1 1 1 1 1 1 1 1 1 1 1 1 1 1 1 1 1 1 1 1 1 1 1 1
0 0 0 0 0 0 0 0 0 0 0 0 0 0 0 0 0 0 0 0 1 1 1 1 1 1 1 1 1 1 1 1 1 1 1 1 1 1 1 1 1 1 1 1
0 0 0 0 0 0 0 0 0 0 0 0 0 0 0 1 1 1 1 1 1 1 1 1 1 1 1 1 1 1 1 1 1 1 1 1 1 1 1 1 1 1 1 1
0 0 0 0 0 0 0 0 0 0 0 0 0 0 1 1 1 1 1 1 1 1 1 1 1 1 1 1 1 1 1 1 1 1 1 1 1 1 1 1 1 0 0 0
0 0 0 0 0 0 0 0 0 0 0 0 1 1 1 1 1 1 1 1 1 1 1 1 1 1 1 1 1 1 1 1 1 0 0 0 1 1 1 0 0 0 0 0
0 0 0 0 0 0 0 0 0 0 0 1 1 1 1 1 1 1 1 1 1 1 1 1 1 1 1 1 1 1 1 1 1 0 0 0 1 1 1 0 0 0 0 0
0 0 0 0 0 0 0 0 0 0 0 1 1 1 1 1 1 1 1 1 1 1 1 1 1 1 1 1 1 1 1 1 1 1 1 1 1 1 1 1 0 0 0 0
0 0 0 0 0 0 0 0 0 0 1 1 1 1 1 1 1 1 1 1 1 1 1 1 1 1 1 1 1 1 1 1 1 1 1 1 1 0 0 1 0 0 0 0
0 0 0 0 0 0 0 0 0 0 1 1 1 1 1 1 1 1 1 1 1 1 1 1 1 1 1 1 1 1 1 1 1 1 0 0 0 0 0 0 0 0 0 0
0 0 0 0 0 0 0 0 0 0 0 0 1 1 0 0 0 0 1 1 0 0 1 1 1 1 0 0 0 0 0 0 0 0 0 0 0 0 0 0 0 0 0 0
0 0 0 0 0 0 0 0 0 0 0 0 0 0 0 0 0 0 0 0 0 0 0 1 1 1 0 0 0 0 0 0 0 0 0 0 0 0 0 0 0 0 0 0
0 0 0 0 0 0 0 0 0 0 0 0 0 0 0 0 0 0 0 0 0 0 0 0 1 1 1 1 0 0 0 0 0 0 0 0 0 0 0 0 0 0 0 0
0 0 0 0 0 0 0 0 0 0 0 0 0 0 0 0 0 0 0 0 0 0 0 0 0 0 0 0 1 1 0 0 0 0 0 0 0 0 0 0 0 0 0 0
0 0 0 0 0 0 0 0 0 0 0 0 0 0 0 0 0 0 0 0 0 0 0 0 0 0 0 0 0 0 0 0 0 0 0 0 0 0 0 0 0 0 0 0
0 0 0 0 0 0 0 0 0 0 0 0 0 0 0 0 0 0 0 0 0 0 0 0 0 0 0 0 0 0 0 0 0 0 0 0 0 0 0 0 0 0 0 0
0 0 0 0 0 0 0 0 0 0 0 0 0 0 0 0 0 0 0 0 0 0 0 0 0 0 0 0 0 0 0 0 0 0 0 0 0 0 0 0 0 0 0 0
0 0 0 0 0 0 0 0 0 0 0 0 0 0 0 0 0 0 0 0 0 0 0 0 0 0 0 0 0 0 0 0 0 0 0 0 0 0 0 0 0 0 0 0
0 0 0 0 0 0 0 0 0 0 0 0 0 0 0 0 0 0 0 0 0 0 0 0 0 0 0 0 0 0 0 0 0 0 0 0 0 0 0 0 0 0 0 0
0 0 0 0 0 0 0 0 0 0 0 0 0 0 0 0 0 0 0 0 0 0 0 0 0 0 0 0 0 0 0 0 0 0 0 0 0 0 0 0 0 0 0 0
0 0 0 0 0 0 0 0 0 0 0 0 0 0 0 0 0 0 0 0 0 0 0 0 0 0 0 0 0 0 0 0 0 0 0 0 0 0 0 0 0 0 0 0
0 0 0 0 0 0 0 0 0 0 0 0 0 0 0 0 0 0 0 0 0 0 0 0 0 0 0 0 0 0 0 0 0 0 0 0 0 0 0 0 0 0 0 0
0 0 0 0 0 0 0 0 0 0 0 0 0 0 0 0 0 0 0 0 0 0 0 0 0 0 0 0 0 0 0 0 0 0 0 0 0 0 0 0 0 0 0 0
0 0 0 0 0 0 0 0 0 0 0 0 0 0 0 0 0 0 0 0 0 0 0 0 0 0 0 0 0 0 0 0 0 0 0 0 0 0 0 0 0 0 0 0
0 0 0 0 0 0 0 0 0 0 0 0 0 0 0 0 0 0 0 0 0 0 0 0 0 0 0 0 0 0 0 0 0 0 0 0 0 0 0 0 0 0 0 0
0 0 0 0 0 0 0 0 0 0 0 0 0 0 0 0 0 0 0 0 0 0 0 0 0 0 0 0 0 0 0 0 0 0 0 0 0 0 0 0 0 0 0 0
Wind_Speed
10 6 7 9 10 11 13 12 10 7 7 4 2 2 1 2 3 4 4 6 6 6 6 6 6 6 6 6 6 6 7 7 6 5 5 4 4 4 4 4 5 4 4 5
11 9 9 10 10 11 12 11 11 9 7 3 1 1 2 3 4 4 4 5 6 7 7 7 7 6 6 6 6 6 6 6 5 5 5 5 4 4 4 4 4 4 4 5
10 8 10 12 10 11 10 9 10 9 6 2 2 2 2 3 4 4 4 4 5 6 6 6 6 6 6 5 5 6 6 5 5 5 5 4 4 4 3 4 4 4 5 5
8 8 13 3 2 6 8 7 6 6 4 4 3 2 2 2 3 4 4 4 4 5 6 6 6 6 6 6 6 6 5 5 4 4 4 4 4 4 4 3 3 4 4 4
8 11 9 5 4 5 7 6 3 5 5 4 2 3 3 1 2 3 3 4 4 5 5 5 6 6 6 6 6 5 5 4 4 4 4 4 5 4 3 3 3 3 3 3
9 11 10 3 4 2 6 6 1 3 3 2 4 5 1 2 1 2 2 3 4 5 5 6 6 6 6 6 6 5 4 4 4 4 4 4 4 4 3 3 3 3 2 2
11 11 5 2 3 5 8 1 1 1 2 2 2 4 3 1 1 2 2 3 3 4 4 5 5 5 5 5 5 4 3 3 4 4 4 4 3 3 3 3 3 3 2 2
9 11 5 3 4 3 2 3 1 1 1 2 2 1 1 1 2 3 3 4 4 4 4 4 4 5 4 4 3 3 3 3 4 4 4 3 3 3 3 3 4 4 3 3
4 1 4 2 1 2 2 1 2 3 2 2 2 1 1 2 2 3 3 4 4 4 5 4 3 4 4 3 3 3 3 3 3 3 3 3 3 4 4 4 4 3 3 3
3 3 1 1 1 1 1 2 2 3 2 1 1 1 1 2 2 3 3 3 3 4 4 3 3 2 2 3 3 3 3 3 3 3 3 3 2 3 3 3 3 3 2 2
4 3 2 2 1 1 2 1 2 2 2 1 1 1 2 2 3 2 2 2 2 2 3 3 2 2 2 2 3 3 3 3 4 4 3 2 2 1 2 1 1 3 3 2
4 2 3 1 0 1 2 2 2 2 2 2 1 1 2 3 2 2 2 2 1 2 2 2 2 2 2 2 3 4 3 4 3 3 3 3 2 2 2 0 1 1 1 3
5 5 4 3 3 2 2 2 2 2 2 2 1 1 2 3 2 2 2 2 1 2 2 1 1 2 2 2 3 3 3 3 3 2 3 3 3 2 2 2 3 3 3 3
3 4 4 4 3 2 2 2 1 1 1 1 0 1 1 2 3 2 2 2 2 1 1 1 1 1 1 2 3 3 4 3 3 3 3 2 2 2 2 2 2 2 3 5
4 4 4 3 3 2 2 1 1 1 1 1 0 1 2 3 3 3 2 2 2 2 1 1 1 1 1 2 3 3 3 2 2 2 2 2 2 2 3 3 2 2 1 3
4 3 3 3 3 2 2 1 1 1 1 1 0 0 1 2 2 2 2 2 2 2 1 1 1 1 1 2 2 2 2 1 2 3 3 3 3 3 3 2 3 3 3 2
5 4 3 3 2 2 2 2 2 1 1 0 1 0 1 1 1 2 2 2 2 2 2 2 2 1 2 2 3 2 2 2 4 4 3 2 3 3 3 3 2 3 2 1
3 3 3 3 2 2 2 2 1 1 1 1 1 0 1 1 1 1 2 2 2 1 1 2 1 1 2 3 3 2 2 2 3 3 2 3 3 3 3 3 3 3 2 2
2 2 2 1 2 1 1 1 2 1 1 1 1 1 1 1 2 2 2 2 2 2 2 1 1 2 2 2 2 2 3 3 3 2 3 2 4 4 3 3 3 3 3 2
1 1 1 1 1 2 2 2 1 1 2 2 2 1 1 1 1 2 2 2 2 1 0 0 1 2 2 1 2 3 3 3 3 3 3 3 4 4 3 3 3 3 3 2
2 2 2 1 1 1 1 1 1 2 2 2 2 1 1 1 1 2 3 2 0 1 0 1 2 1 1 1 3 4 3 3 3 3 3 3 3 3 3 3 3 3 3 3
2 2 2 2 1 1 1 2 1 2 3 2 2 1 1 2 2 2 2 1 1 2 1 1 0 2 2 2 3 2 2 2 3 3 3 3 3 3 3 3 3 3 3 3
2 1 1 1 1 1 1 1 1 2 2 2 2 2 2 2 2 2 1 1 1 1 1 0 2 2 2 3 2 2 2 2 2 2 2 2 2 2 2 2 2 2 3 3
1 1 1 1 1 1 1 0 1 1 1 1 1 1 1 1 1 1 0 1 1 0 1 2 3 0 3 3 2 2 2 1 1 2 2 2 2 2 2 2 2 2 2 3
1 1 0 1 1 0 1 1 1 1 1 1 1 1 1 1 1 0 0 1 1 1 1 2 3 2 3 2 1 1 2 1 1 2 2 1 2 2 2 2 1 2 2 3
0 0 0 1 1 1 0 0 0 0 0 0 1 1 1 1 0 0 0 1 2 1 1 1 2 3 2 1 1 2 2 2 2 2 2 2 2 2 2 1 2 2 2 2
1 1 1 1 0 0 1 1 0 1 1 0 1 1 1 1 1 1 0 0 1 1 1 1 1 2 2 2 2 2 2 2 2 1 2 2 2 1 1 2 2 2 2 2
Wind_Direction
252 252 238 233 229 225 237 253 265 266 267 285 309 293 246 199 179 168 167 167 164 163 162 166 167 169 173 177 176 178 180 182 181 182 180 179 185 191 201 208 205 206 213 214
237 236 236 241 236 231 235 246 252 261 268 298 336 247 217 201 198 193 185 174 169 166 166 171 174 175 172 177 177 179 185 187 180 181 180 182 188 195 202 210 216 215 218 222
233 225 237 236 232 231 230 239 250 254 263 275 263 248 236 216 210 196 185 180 176 173 174 176 174 171 172 171 170 173 182 183 181 184 187 192 197 196 209 220 220 222 224 224
235 221 237 226 194 229 234 241 253 264 288 289 280 255 247 236 215 196 178 173 176 174 175 176 172 169 171 167 173 177 181 182 184 186 192 191 195 203 214 222 224 230 233 233
236 233 232 193 182 214 230 234 258 267 275 280 250 221 205 191 211 201 179 177 178 176 171 164 162 161 166 169 172 178 179 183 186 193 198 200 201 206 212 219 220 226 225 232
235 244 240 204 138 197 232 221 210 273 279 268 229 242 125 86 191 186 159 157 162 164 158 155 155 160 168 172 172 179 182 185 193 201 206 205 203 207 207 213 216 225 220 226
239 242 241 77 132 190 230 226 66 264 277 271 267 321 23 55 143 148 135 135 144 148 147 148 153 159 168 172 177 175 175 183 193 202 206 206 207 209 209 210 213 224 221 221
236 239 225 90 168 221 4 35 18 322 306 296 303 349 66 93 124 133 133 130 132 132 131 138 149 158 167 170 171 171 176 192 202 208 220 200 201 206 205 209 208 209 212 227
255 269 59 96 100 62 25 6 341 316 312 287 268 208 136 129 128 135 140 136 138 137 130 132 144 162 172 163 166 170 178 192 203 207 215 213 215 213 210 212 230 226 220 224
226 189 147 135 84 62 16 349 331 327 323 310 284 219 179 154 146 149 137 135 137 136 131 134 149 168 175 164 167 175 184 188 194 198 203 197 231 234 236 235 238 242 238 232
223 209 191 183 191 354 4 353 345 338 339 341 281 233 196 176 169 166 152 145 145 152 150 151 161 176 189 175 179 189 191 195 201 198 187 193 208 269 262 298 314 274 269 255
253 252 263 244 317 312 322 329 325 318 318 318 269 227 215 195 185 173 166 157 169 181 173 168 169 183 189 192 194 204 208 211 209 198 186 199 192 180 92 123 120 191 269 282
283 291 290 282 291 294 289 300 305 303 290 292 283 221 216 196 187 184 179 186 192 196 184 183 197 189 185 186 191 206 224 223 223 212 200 209 210 213 205 167 165 180 191 200
285 276 261 261 273 285 282 283 302 317 322 324 274 215 198 188 184 186 189 191 183 174 172 171 182 180 187 185 193 203 219 209 228 224 224 221 223 226 226 225 209 192 178 181
273 268 267 269 263 267 266 267 281 322 342 7 151 204 201 192 180 178 176 182 181 184 182 171 174 207 198 196 203 212 222 219 223 234 225 222 224 229 231 222 223 224 207 167
273 263 259 246 247 258 266 268 273 299 329 359 4 241 215 189 164 161 176 195 203 206 204 207 223 224 207 214 222 226 222 185 231 235 223 212 215 221 225 222 224 227 230 222
259 253 252 246 242 252 264 272 270 271 280 327 339 316 200 170 165 174 198 218 226 224 220 225 230 208 213 227 235 238 228 186 203 230 227 220 223 226 224 226 231 245 247 206
270 264 256 258 258 253 257 262 260 260 258 285 288 227 194 202 231 228 223 230 227 219 221 228 212 193 213 233 243 252 232 218 217 227 224 224 234 236 233 225 228 245 250 202
271 259 247 255 267 259 250 260 271 284 277 248 229 229 230 236 245 243 222 216 219 222 227 211 163 214 218 223 243 240 237 226 230 236 237 224 236 239 234 230 233 238 242 241
295 278 259 252 271 271 263 258 255 266 272 267 251 226 216 233 233 219 208 219 229 283 278 87 226 245 254 221 249 243 237 234 234 240 240 239 241 244 241 232 231 235 236 236
292 269 255 268 290 301 289 264 227 244 264 256 241 232 230 234 232 224 225 228 199 2 309 170 229 250 261 326 252 250 238 237 238 241 245 244 247 246 246 244 240 238 237 238
281 267 258 248 247 269 279 264 225 215 227 233 233 231 235 236 232 230 239 289 20 62 281 230 223 47 5 299 259 256 244 242 246 242 241 242 243 245 246 248 246 244 243 240
284 272 260 258 265 269 262 255 233 221 223 228 229 230 245 265 265 259 260 8 21 36 282 13 57 68 292 256 252 241 240 241 243 240 240 243 244 250 251 244 244 243 249 253
297 292 280 254 246 235 233 271 256 221 213 218 213 211 233 230 239 265 342 105 98 182 274 85 95 181 251 247 244 233 231 227 232 242 242 237 234 238 241 235 236 245 249 255
304 312 236 219 229 217 127 139 146 166 195 161 133 146 218 244 267 310 71 117 115 185 195 127 155 213 235 238 230 227 228 223 238 251 246 243 241 238 238 242 250 257 262 264
291 271 36 343 352 340 294 262 271 33 211 110 80 79 81 89 98 91 140 151 151 191 226 183 185 210 232 233 231 231 231 202 207 227 246 250 247 249 251 257 269 275 275 274
245 209 198 202 191 298 314 324 313 301 305 8 2 25 48 46 39 35 312 213 179 197 217 222 218 225 247 253 240 228 229 230 230 238 244 249 252 258 260 256 262 269 273 272